Starlink 30561

operational
NORAD ID: 58032 Int'l Des: 2023-156 Owner: SPXS Country: US Constellation: starlink
LEOCIRCULAR

Über Starlink 30561

Beschreibung wird geladen...

Live-Position

3D-Globus wird geladen...

Nächste Überflüge

Höhenverlauf

Altitude vs Time

uPlot chart will show altitude changes over time

Zweizeiliger Elementsatz

1 58032U 23156E 26033.95021551 -.00000070 00000-0 97615-5 0 9998
2 58032 53.1583 239.8116 0001288 100.6621 259.4525 15.30188598130992
Epoch: 2. Feb. 2026 • Age: 34 hours

Aktueller Status

Höhe 476.2 km
Geschwindigkeit 7.63 km/s
Subsatellitenpunkt 1.23°N, 39.98°W
Startdatum 9. Okt. 2023
Alter 2.3 years
Typ internet

Technische Details

Klassifizierung Payload
Masse 730.00 kg
Trockenmasse 700.00 kg
Gesamtmasse 730.00 kg
Länge 0.30 m
Durchmesser 4.10 m
Spannweite 29.00 m
Form Box + pan
Hersteller SPXS
Bus-Typ Starlink V2M
Phasenstatus In Orbit
Besitzer/Staat SPXS/US

Große Konstellationen

Loading constellations...